Skip Page Navigation
NASA JPL Caltech
NASA Logo - Jet Propulsion Laboratory + View the NASA Portal
+ Center for Near-Earth Object Studies
JPL Home Earth Solar System Stars & Galaxies Technology
JPL Solar System Dynamics
BODIES ORBITS EPHEMERIDES TOOLS PHYSICAL DATA DISCOVERY FAQ SITE MAP
IMPORTANT: The SSD Announcement email list is now available. Major changes are coming in the near future, including possible hostname and/or URL changes. To be notified of such changes, subscribe to this email list.

Please visit this page for more details.


JPL Small-Body Database Browser
Search: [ help ]  
357939 (2005 YU36)
Classification: Main-belt Asteroid          SPK-ID: 2357939
Ephemeris | Orbit Diagram | Orbital Elements | Mission Design | Physical Parameters | Discovery Circumstances | Close-Approach Data ]

[ show orbit diagram ]
Orbital Elements at Epoch 2458600.5 (2019-Apr-27.0) TDB
Reference: JPL 6 (heliocentric ecliptic J2000)
 Element Value Uncertainty (1-sigma)   Units 
e .1465872087384189 6.3929e-08  
a 2.219593930359011 1.8103e-08 au
q 1.894229851574947 1.4349e-07 au
i 3.796492290789934 9.2731e-06 deg
node 305.4919384202247 7.9122e-05 deg
peri 77.50418875472771 8.7973e-05 deg
M 83.51160380036973 3.7708e-05 deg
tp 2458320.309734284518
(2018-Jul-20.80973428)
0.00012472 TDB
period 1207.838085575442
3.31
1.4777e-05
4.046e-08
d
yr
n .2980531946287218 3.6463e-09 deg/d
Q 2.544958009143075 2.0756e-08 au
  Orbit Determination Parameters
   # obs. used (total)      157  
   data-arc span      6370 days (17.44 yr)  
   first obs. used      2001-08-24  
   last obs. used      2019-02-01  
   planetary ephem.      DE431  
   SB-pert. ephem.      SB431-N16  
   condition code      0  
   norm. resid. RMS      .63339  
   source      ORB  
   producer      Otto Matic  
   solution date      2019-Jul-14 06:14:18  

Additional Information
 Earth MOID = .900898 au 
 Jupiter MOID = 2.91853 au 
 T_jup = 3.634 
[ show covariance matrix ]

Ephemeris | Orbit Diagram | Orbital Elements | Mission Design | Physical Parameters | Discovery Circumstances | Close-Approach Data ]

Physical Parameter Table
Parameter Symbol Value Units Sigma Reference Notes
absolute magnitude H 18.0   n/a MPO300479  

357939 (2005 YU36)          Discovered 2005-Dec-25 by Spacewatch at Kitt Peak
Reference: 20130327/Numbers.arcLast Updated: 2013-03-29

[ show close-approach data ]
Ephemeris | Orbit Diagram | Orbital Elements | Mission Design | Physical Parameters | Discovery Circumstances | Close-Approach Data ]
ABOUT SSD CREDITS/AWARDS PRIVACY/COPYRIGHT GLOSSARY LINKS
FirstGov 2019-Dec-10 03:39 UT
(server date/time)  
NASA Home Page
Site Manager:   Ryan S. Park
Webmaster  Alan B. Chamberlin